S-NET A (43188 NORAD) Tracking and Keplerian Element Data

This shows tracking and keplerian element data for the satellite.

Feedback or suggestion? Click here.




ElementValue
Catalog43188
NameS-NET A
Epoch Orbit15343
Epoch Day328.14705303
Epoch Year2020
RAAN233.3218
Inclination97.6849
Eccentricity0.0012144
Argument of Perigee57.769
Mean Anonmoly302.4707
Mean Motion14.96891035
Decay Rate6.47E-06
L11 43188U 18014J 20328.14705303 .00000647 00000-0 61322-4 0 9991
L22 43188 97.6849 233.3218 0012144 57.7690 302.4707 14.96891035153432

Live tracking and technical data element details for S-NET A (NORAD 43188). S-NET A can be tracked NOW for your location showing map with azimuth and elevation plus other details from your city location.

Track the satellite on the map from your city or location and see movement details for azimuth, elevation, latitude, longitude, range, height, and movement on the map or in text.







IsCatalogInMostPopularTable: catalog: 43188, numindb: 518
Update: records affected: 1



GetName: 43188 S-NET A

Hit Count: updated at: Mon, 23 Nov 2020 21:45:04 GMT